Back to catalog

KHORS NO. 1

AliveMilitarySSO
NORAD 57188·PAYLOAD·🇷🇺 Russia
This satellite name has not been confirmed by official sources yet.

Launched Jun 27, 2023 from Vostochny Cosmodrome

Loading…

Next Passes (next 24 hours)

TLE

FreshSource: Space-Track

Epoch: Sep 14, 2026, 14:23 UTC

1 57188U 23091Y   26257.59996135  .00007507  00000-0  27669-3 0  9995
2 57188  97.4973 321.7054 0009758 131.0518 229.1566 15.28064746177964

Track KHORS NO. 1 in real time with AllMySat

Download on the App Store